• In Belgium
  • List of Countries
  • For 7 days
  • Water Temperature
  • Satellite Maps
  • Weather Map
  • Weather Widgets
  • user-avatar
    Login

    Hourly Weather Sevan

    Today, 22 January, Monday

    Time Temperature Precipitation Wind Pressure Humidity
    00:00 -3°C° 0 mm 2 mps 640 mmHg 63%
    01:00 -3°C° 0 mm 2 mps 639 mmHg 62%
    02:00 -3°C° 0 mm 2 mps 639 mmHg 61%
    03:00 -2°C° 0 mm 2 mps 638 mmHg 61%
    04:00 -2°C° 0 mm 2 mps 638 mmHg 61%
    05:00 -2°C° 0 mm 2 mps 638 mmHg 60%
    06:00 -2°C° 0 mm 2 mps 638 mmHg 59%
    07:00 -2°C° 0 mm 2 mps 638 mmHg 58%
    08:00 -1°C° 0 mm 2 mps 638 mmHg 58%
    09:00 -1°C° 0 mm 2 mps 638 mmHg 57%
    10:00 +2°C° 0 mm 2 mps 638 mmHg 57%
    11:00 +2°C° 0 mm 3 mps 637 mmHg 56%
    12:00 +3°C° 0 mm 3 mps 637 mmHg 55%
    13:00 +3°C° 0 mm 3 mps 637 mmHg 55%
    14:00 +3°C° 0 mm 3 mps 636 mmHg 56%
    15:00 +4°C° 0 mm 2 mps 636 mmHg 56%
    16:00 +3°C° 0 mm 2 mps 636 mmHg 54%
    17:00 +1°C° 0 mm 2 mps 635 mmHg 52%
    18:00 -1°C° 0 mm 2 mps 635 mmHg 50%
    19:00 -2°C° 0 mm 2 mps 635 mmHg 49%
    20:00 -2°C° 0 mm 2 mps 635 mmHg 48%
    21:00 -3°C° 0 mm 2 mps 635 mmHg 47%
    22:00 -3°C° 0 mm 2 mps 635 mmHg 49%
    23:00 -3°C° 0 mm 2 mps 635 mmHg 51%

    Tomorrow, 23 January, Tuesday

    Time Temperature Precipitation Wind Pressure Humidity
    00:00 -3°C° 0 mm 2 mps 635 mmHg 52%
    01:00 -4°C° 0 mm 2 mps 635 mmHg 53%
    02:00 -4°C° 0 mm 2 mps 635 mmHg 54%
    03:00 -4°C° 0 mm 2 mps 635 mmHg 54%
    04:00 -4°C° 0 mm 2 mps 635 mmHg 55%
    05:00 -4°C° 0 mm 2 mps 635 mmHg 55%
    06:00 -5°C° 0 mm 2 mps 635 mmHg 55%
    07:00 -4°C° 0 mm 2 mps 635 mmHg 56%
    08:00 -3°C° 0 mm 2 mps 635 mmHg 56%
    09:00 -2°C° 0 mm 2 mps 636 mmHg 57%
    10:00 -1°C° 0 mm 2 mps 636 mmHg 56%
    11:00 0°C° 0 mm 3 mps 636 mmHg 55%
    12:00 +1°C° 0 mm 3 mps 635 mmHg 54%
    13:00 +1°C° 0 mm 3 mps 635 mmHg 55%
    14:00 +2°C° 0 mm 3 mps 635 mmHg 56%
    15:00 +3°C° 0 mm 2 mps 635 mmHg 56%
    16:00 +1°C° 0 mm 2 mps 635 mmHg 56%
    17:00 -1°C° 0 mm 2 mps 635 mmHg 56%
    18:00 -2°C° 0 mm 2 mps 635 mmHg 55%
    19:00 -2°C° 0 mm 2 mps 635 mmHg 57%
    20:00 -2°C° 0 mm 2 mps 635 mmHg 58%
    21:00 -1°C° 0 mm 2 mps 636 mmHg 59%
    22:00 -1°C° 0.1 mm 2 mps 636 mmHg 60%
    23:00 -2°C° 0.1 mm 2 mps 636 mmHg 61%

    Day after tomorrow, 24 January, Wednesday

    Time Temperature Precipitation Wind Pressure Humidity
    00:00 -2°C° 0.1 mm 2 mps 636 mmHg 62%
    01:00 0°C° 0.1 mm 1 mps 636 mmHg 64%
    02:00 0°C° 0.1 mm 1 mps 636 mmHg 66%
    03:00 0°C° 0.1 mm 1 mps 636 mmHg 67%
    04:00 -1°C° 0.1 mm 1 mps 636 mmHg 69%
    05:00 -1°C° 0.1 mm 1 mps 636 mmHg 72%
    06:00 -1°C° 0.1 mm 1 mps 636 mmHg 74%
    07:00 0°C° 0.1 mm 1 mps 637 mmHg 74%
    08:00 0°C° 0.1 mm 1 mps 637 mmHg 74%
    09:00 +1°C° 0.1 mm 1 mps 638 mmHg 74%
    10:00 +1°C° 0.1 mm 1 mps 638 mmHg 73%
    11:00 +1°C° 0.1 mm 2 mps 638 mmHg 72%
    12:00 +2°C° 0.1 mm 2 mps 638 mmHg 70%
    13:00 +2°C° 0.1 mm 2 mps 638 mmHg 70%
    14:00 +3°C° 0.1 mm 1 mps 638 mmHg 69%
    15:00 +3°C° 0.1 mm 1 mps 638 mmHg 69%
    16:00 +2°C° 0 mm 1 mps 638 mmHg 70%
    17:00 +1°C° 0 mm 1 mps 638 mmHg 71%
    18:00 0°C° 0 mm 1 mps 638 mmHg 72%
    19:00 -1°C° 0 mm 1 mps 639 mmHg 71%
    20:00 -1°C° 0 mm 1 mps 639 mmHg 70%
    21:00 -1°C° 0 mm 1 mps 639 mmHg 70%
    22:00 -1°C° 0.1 mm 1 mps 639 mmHg 70%
    23:00 -1°C° 0.1 mm 1 mps 640 mmHg 71%

    25 January, Thursday

    Time Temperature Precipitation Wind Pressure Humidity
    00:00 -1°C° 0.1 mm 1 mps 640 mmHg 71%
    01:00 -1°C° 0.2 mm 1 mps 640 mmHg 73%
    02:00 -1°C° 0.2 mm 1 mps 640 mmHg 74%
    03:00 -1°C° 0.2 mm 1 mps 640 mmHg 76%
    04:00 -1°C° 0.1 mm 1 mps 640 mmHg 77%
    05:00 -1°C° 0.1 mm 1 mps 640 mmHg 78%
    06:00 -1°C° 0.1 mm 1 mps 640 mmHg 79%
    07:00 -1°C° 0.1 mm 1 mps 640 mmHg 79%
    08:00 0°C° 0.1 mm 1 mps 640 mmHg 79%
    09:00 0°C° 0.1 mm 1 mps 641 mmHg 79%
    10:00 +1°C° 0.2 mm 1 mps 641 mmHg 78%
    11:00 +2°C° 0.2 mm 1 mps 641 mmHg 77%
    12:00 +2°C° 0.2 mm 1 mps 641 mmHg 76%
    13:00 +1°C° 0.3 mm 2 mps 640 mmHg 76%
    14:00 +1°C° 0.3 mm 2 mps 640 mmHg 77%
    15:00 +1°C° 0.3 mm 2 mps 640 mmHg 77%
    16:00 +1°C° 0.2 mm 2 mps 640 mmHg 79%
    17:00 +1°C° 0.2 mm 1 mps 640 mmHg 80%
    18:00 0°C° 0.2 mm 1 mps 640 mmHg 82%
    19:00 0°C° 0.2 mm 1 mps 640 mmHg 82%
    20:00 -2°C° 0.2 mm 2 mps 640 mmHg 82%
    21:00 -2°C° 0.2 mm 2 mps 641 mmHg 82%
    22:00 -2°C° 0.1 mm 2 mps 640 mmHg 81%
    23:00 -3°C° 0.1 mm 2 mps 640 mmHg 81%

    26 January, Friday

    Time Temperature Precipitation Wind Pressure Humidity
    00:00 -3°C° 0.1 mm 2 mps 640 mmHg 81%
    01:00 -3°C° 0.1 mm 2 mps 640 mmHg 81%
    02:00 -3°C° 0.1 mm 2 mps 640 mmHg 81%
    03:00 -3°C° 0.1 mm 2 mps 640 mmHg 81%
    04:00 -3°C° 0.1 mm 2 mps 640 mmHg 81%
    05:00 -3°C° 0.1 mm 2 mps 640 mmHg 81%
    06:00 -3°C° 0.1 mm 2 mps 640 mmHg 81%
    07:00 -3°C° 0.1 mm 2 mps 640 mmHg 81%
    08:00 -3°C° 0.1 mm 2 mps 640 mmHg 80%
    09:00 -2°C° 0.1 mm 2 mps 640 mmHg 80%
    10:00 -1°C° 0.2 mm 2 mps 640 mmHg 78%
    11:00 -1°C° 0.2 mm 2 mps 640 mmHg 77%
    12:00 +1°C° 0.2 mm 2 mps 640 mmHg 76%
    13:00 +1°C° 0.2 mm 2 mps 640 mmHg 75%
    14:00 +1°C° 0.2 mm 2 mps 639 mmHg 75%
    15:00 +1°C° 0.2 mm 2 mps 639 mmHg 75%
    16:00 -1°C° 0.2 mm 2 mps 639 mmHg 77%
    17:00 -1°C° 0.2 mm 2 mps 639 mmHg 79%
    18:00 0°C° 0.2 mm 1 mps 639 mmHg 81%
    19:00 0°C° 0.2 mm 1 mps 639 mmHg 82%
    20:00 -1°C° 0.2 mm 1 mps 639 mmHg 82%
    21:00 -1°C° 0.2 mm 1 mps 640 mmHg 83%
    22:00 -1°C° 0.2 mm 1 mps 639 mmHg 83%
    23:00 -1°C° 0.2 mm 1 mps 639 mmHg 83%

    27 January, Saturday

    Time Temperature Precipitation Wind Pressure Humidity
    00:00 -2°C° 0.2 mm 1 mps 639 mmHg 83%
    01:00 -2°C° 0.2 mm 1 mps 639 mmHg 84%
    02:00 -2°C° 0.2 mm 1 mps 639 mmHg 84%
    03:00 -2°C° 0.2 mm 1 mps 639 mmHg 84%
    04:00 -2°C° 0.2 mm 1 mps 639 mmHg 84%
    05:00 -5°C° 0.2 mm 2 mps 639 mmHg 84%
    06:00 -5°C° 0.2 mm 2 mps 639 mmHg 85%
    07:00 -4°C° 0.2 mm 2 mps 640 mmHg 83%
    08:00 -4°C° 0.2 mm 2 mps 640 mmHg 82%
    09:00 -3°C° 0.2 mm 2 mps 641 mmHg 80%
    10:00 -3°C° 0.2 mm 2 mps 641 mmHg 78%
    11:00 -2°C° 0.2 mm 2 mps 641 mmHg 76%
    12:00 -1°C° 0.2 mm 2 mps 641 mmHg 74%
    13:00 -1°C° 0.2 mm 2 mps 641 mmHg 74%
    14:00 -1°C° 0.2 mm 2 mps 641 mmHg 73%
    15:00 -1°C° 0.2 mm 2 mps 640 mmHg 73%
    16:00 -2°C° 0.2 mm 2 mps 641 mmHg 75%
    17:00 -2°C° 0.2 mm 2 mps 641 mmHg 77%
    18:00 -3°C° 0.2 mm 2 mps 641 mmHg 79%
    19:00 -4°C° 0.1 mm 2 mps 641 mmHg 80%
    20:00 -4°C° 0.1 mm 2 mps 642 mmHg 81%
    21:00 -5°C° 0.1 mm 2 mps 642 mmHg 82%
    22:00 -5°C° 0.1 mm 2 mps 642 mmHg 82%
    23:00 -5°C° 0.1 mm 2 mps 642 mmHg 83%
    Show more